DELTA 1 DEB, 42563

Orbit data source: Space-Track

DELTA 1 DEB, 42563 is space debris in SSO originally from a launch on Sun, 23 Jul 1972 UTC launched from the Air Force Western Test Range (AFWTR). Debris objects in space refer to the collection of defunct objects orbiting the Earth. Examples of debris include non-operational satellites, rocket bodies, and fragments generated from explosions, collisions, or faulty payload assembly.

Loading next visibility...
DELTA 1 DEB details
Identifier
42563, 1972-058JW
Orbit
SSO
Last TLE update10 hours ago
Origin
Flag of USGSFC (US)
ManufacturerUnknown
MissionSpacecraft
Bus & MotorUnknown
MassUnknown
Launch date (UTC)
1972-07-23 (52 years ago)
Launch vehicleUnknown
Launch site
Air Force Western Test Range (AFWTR)
Object type
Payload
Rocket body
Debris
Shape & HBRUnknown
Radar Cross SectionSmall (<0.1 m²)

Expand to show TLE details & history

TLE from 10 hours ago
0 DELTA 1 DEB
1 42563U 72058JW  24361.19688041  .00000647  00000-0  57698-3 0  9990
2 42563  98.7662 150.4967 0250345  54.1426 308.2697 13.74438894549782
Epoch: 2024-12-26T04:43Z
Definitive object data (Epoch: 2024-12-26T04:43:30.467Z)
Latitude-0.00006°
Longitude-15.55997°
Altitude875.27 km
Speed7.47 km/s
True Right ascension10h 01m 59s
True Declination0° 00' 00"
Sunlit
Object was in full shadow at TLE epoch
Visualization TLE readout
Latitude-42.28727°
Longitude-7.14593°
Altitude1,013.407 km
Speed7.337 km/s
Apparent Right ascension06h 52m 26s
Apparent Declination-61° 16' 09"
Sunlit
Object is in daylight
Visualization observer readout
Local Sidereal Time14:22:06
Azimuth218.686° SW
Elevation-44.69°
Doppler factor1
Orbital elements
Apogee altitude1,165.127 km
Perigee altitude796.668 km
Semi-major axis7,359.035 km
Eccentricity0.0250345
Inclination98.7662°
RAAN150.4967°
Arg. of periapsis54.1426°
True anomaly305.97358°
Mean anomaly308.2697°
Eccentric anomaly307.12606°
Mean motion3.43805 °/min
BSTAR0.00057698
Orbital period104.71 mins
Loading maneuver chart data...

DELTA 1 DEB Visibility forecast

Observer location: undefined°, undefined

Span
Click to sort rows by Start time (UTC) header in descending order
Start Az.
Max El. time (UTC)
Max El. Az.
Max El.
End time (UTC)
End Az.
11 mins2024-12-26 22:46:10.735Z22.501° NE2024-12-26 22:51:10.735Z104.896° ESE41.727°2024-12-26 22:57:10.735Z182.446° SSW
7 mins2024-12-27 00:31:10.735Z332.237° NNW2024-12-27 00:34:10.735Z296.077° NW19.063°2024-12-27 00:38:10.735Z253.811° W
5 mins2024-12-27 08:51:10.735Z93.042° ESE2024-12-27 08:53:10.735Z66.581° ENE17.198°2024-12-27 08:56:10.735Z27.261° NE
8 mins2024-12-27 10:33:10.735Z189.791° SSW2024-12-27 10:36:10.735Z245.069° WSW38.318°2024-12-27 10:41:10.735Z335.375° NNW
|